Year,Month,Day,Hour,Minute,Value (Times are PST for windspeed in km/hr)
2013,09,30,00,00,7.50
2013,09,30,00,01,4.00
2013,09,30,00,02,3.00
2013,09,30,00,03,0.80
2013,09,30,00,04,2.20
2013,09,30,00,05,2.20
2013,09,30,00,06,8.90
2013,09,30,00,07,6.40
2013,09,30,00,08,4.20
2013,09,30,00,09,5.10
2013,09,30,00,10,5.00
2013,09,30,00,11,2.40
2013,09,30,00,12,6.10
2013,09,30,00,16,1.50
2013,09,30,00,17,4.10
2013,09,30,00,18,6.80
2013,09,30,00,19,5.50
2013,09,30,00,20,3.30
2013,09,30,00,21,3.50
2013,09,30,00,22,4.90
2013,09,30,00,23,5.00
2013,09,30,00,24,8.70
2013,09,30,00,25,2.10
2013,09,30,00,26,4.70
2013,09,30,00,27,4.20
2013,09,30,00,28,3.70
2013,09,30,00,29,2.60
2013,09,30,00,30,3.40
2013,09,30,00,31,3.30
2013,09,30,00,32,5.90
2013,09,30,00,33,4.70
2013,09,30,00,34,2.70
2013,09,30,00,35,2.80
2013,09,30,00,36,4.20
2013,09,30,00,37,3.10
2013,09,30,00,38,6.10
2013,09,30,00,39,5.70
2013,09,30,00,40,12.00
2013,09,30,00,41,12.30
2013,09,30,00,42,5.00
2013,09,30,00,43,5.40
2013,09,30,00,44,4.70
2013,09,30,00,45,6.00
2013,09,30,00,46,4.80
2013,09,30,00,47,7.10
2013,09,30,00,48,7.30
2013,09,30,00,49,6.00
2013,09,30,00,50,5.40
2013,09,30,00,51,6.80
2013,09,30,00,52,7.60
2013,09,30,00,53,6.60
2013,09,30,00,54,4.90
2013,09,30,00,55,6.30
2013,09,30,00,56,5.80
2013,09,30,00,57,6.40
2013,09,30,00,58,4.70
2013,09,30,00,59,7.70
2013,09,30,01,00,6.90
2013,09,30,01,01,5.00
2013,09,30,01,02,5.10
2013,09,30,01,03,4.70
2013,09,30,01,04,5.50
2013,09,30,01,05,6.90
2013,09,30,01,06,7.60
2013,09,30,01,07,10.60
2013,09,30,01,08,6.10
2013,09,30,01,09,5.90
2013,09,30,01,10,6.80
2013,09,30,01,11,5.90
2013,09,30,01,12,5.20
2013,09,30,01,13,4.60
2013,09,30,01,14,1.90
2013,09,30,01,15,2.50
2013,09,30,01,16,3.90
2013,09,30,01,17,4.20
2013,09,30,01,18,4.40
2013,09,30,01,19,6.80
2013,09,30,01,20,0.80
2013,09,30,01,21,3.50
2013,09,30,01,22,4.70
2013,09,30,01,23,0.50
2013,09,30,01,24,3.40
2013,09,30,01,25,1.70
2013,09,30,01,26,3.90
2013,09,30,01,27,4.90
2013,09,30,01,28,4.70
2013,09,30,01,29,3.80
2013,09,30,01,30,1.30
2013,09,30,01,31,2.70
2013,09,30,01,32,3.20
2013,09,30,01,33,3.90
2013,09,30,01,34,5.20
2013,09,30,01,35,2.20
2013,09,30,01,36,3.60
2013,09,30,01,37,0.70
2013,09,30,01,38,6.00
2013,09,30,01,39,3.60
2013,09,30,01,40,1.20
2013,09,30,01,41,1.70
2013,09,30,01,42,4.20
2013,09,30,01,43,2.40
2013,09,30,01,44,4.40
2013,09,30,01,45,3.30
2013,09,30,01,46,3.90
2013,09,30,01,47,3.10
2013,09,30,01,48,1.80
2013,09,30,01,49,6.20
2013,09,30,01,50,11.60
2013,09,30,01,51,5.20
2013,09,30,01,52,9.30
2013,09,30,01,53,8.60
2013,09,30,01,54,5.00
2013,09,30,01,55,2.60
2013,09,30,01,56,0.80
2013,09,30,01,57,3.90
2013,09,30,01,58,2.40
2013,09,30,01,59,0.40
2013,09,30,02,00,5.40
2013,09,30,02,01,3.30
2013,09,30,02,02,2.00
2013,09,30,02,03,5.10
2013,09,30,02,04,8.90
2013,09,30,02,05,4.40
2013,09,30,02,06,3.00
2013,09,30,02,07,3.50
2013,09,30,02,08,3.40
2013,09,30,02,09,8.60
2013,09,30,02,10,9.10
2013,09,30,02,11,5.30
2013,09,30,02,12,9.40
2013,09,30,02,13,7.30
2013,09,30,02,14,6.20
2013,09,30,02,15,3.60
2013,09,30,02,16,5.60
2013,09,30,02,17,1.50
2013,09,30,02,18,4.90
2013,09,30,02,19,5.90
2013,09,30,02,20,4.30
2013,09,30,02,21,5.60
2013,09,30,02,22,0.20
2013,09,30,02,23,1.50
2013,09,30,02,24,2.40
2013,09,30,02,25,2.20
2013,09,30,02,26,1.40
2013,09,30,02,27,3.50
2013,09,30,02,28,0.40
2013,09,30,02,29,0.10
2013,09,30,02,30,0.10
2013,09,30,02,31,0.80
2013,09,30,02,32,4.70
2013,09,30,02,33,3.50
2013,09,30,02,34,1.80
2013,09,30,02,35,2.50
2013,09,30,02,36,1.90
2013,09,30,02,37,3.20
2013,09,30,02,38,4.40
2013,09,30,02,39,3.00
2013,09,30,02,40,3.00
2013,09,30,02,41,3.90
2013,09,30,02,42,2.70
2013,09,30,02,43,2.60
2013,09,30,02,44,0.10
2013,09,30,02,45,1.90
2013,09,30,02,46,3.80
2013,09,30,02,47,2.60
2013,09,30,02,48,1.10
2013,09,30,02,49,0.90
2013,09,30,02,50,5.60
2013,09,30,02,51,6.40
2013,09,30,02,52,3.10
2013,09,30,02,53,1.80
2013,09,30,02,54,1.60
2013,09,30,02,55,1.20
2013,09,30,02,56,0.00
2013,09,30,02,57,1.20
2013,09,30,02,58,1.30
2013,09,30,02,59,2.40
2013,09,30,03,00,1.30
2013,09,30,03,01,3.60
2013,09,30,03,02,5.80
2013,09,30,03,03,3.20
2013,09,30,03,04,9.60
2013,09,30,03,05,7.00
2013,09,30,03,06,5.80
2013,09,30,03,07,8.50
2013,09,30,03,08,6.00
2013,09,30,03,09,3.50
2013,09,30,03,10,5.80
2013,09,30,03,11,6.60
2013,09,30,03,12,6.40
2013,09,30,03,13,2.30
2013,09,30,03,14,6.00
2013,09,30,03,15,3.70
2013,09,30,03,16,3.50
2013,09,30,03,17,10.60
2013,09,30,03,18,4.40
2013,09,30,03,19,2.40
2013,09,30,03,20,7.80
2013,09,30,03,21,5.00
2013,09,30,03,22,5.80
2013,09,30,03,23,8.70
2013,09,30,03,24,3.20
2013,09,30,03,25,2.10
2013,09,30,03,26,4.40
2013,09,30,03,27,3.40
2013,09,30,03,28,1.70
2013,09,30,03,29,11.80
2013,09,30,03,30,2.20
2013,09,30,03,31,0.50
2013,09,30,03,32,3.90
2013,09,30,03,33,8.00
2013,09,30,03,34,3.60
2013,09,30,03,35,7.00
2013,09,30,03,36,2.90
2013,09,30,03,37,4.50
2013,09,30,03,38,2.70
2013,09,30,03,39,4.20
2013,09,30,03,40,6.10
2013,09,30,03,41,6.80
2013,09,30,03,42,9.50
2013,09,30,03,43,4.70
2013,09,30,03,44,5.30
2013,09,30,03,45,0.70
2013,09,30,03,46,4.10
2013,09,30,03,47,6.60
2013,09,30,03,48,2.30
2013,09,30,03,49,3.80
2013,09,30,03,50,2.80
2013,09,30,03,51,6.20
2013,09,30,03,52,4.70
2013,09,30,03,53,5.10
2013,09,30,03,54,2.40
2013,09,30,03,55,1.50
2013,09,30,03,56,4.60
2013,09,30,03,57,3.90
2013,09,30,03,58,1.70
2013,09,30,03,59,3.20
2013,09,30,04,00,4.20
2013,09,30,04,01,2.20
2013,09,30,04,02,6.70
2013,09,30,04,03,7.20
2013,09,30,04,04,4.60
2013,09,30,04,05,7.30
2013,09,30,04,06,2.20
2013,09,30,04,07,1.30
2013,09,30,04,08,7.50
2013,09,30,04,09,4.00
2013,09,30,04,10,5.10
2013,09,30,04,11,4.60
2013,09,30,04,12,2.70
2013,09,30,04,13,5.10
2013,09,30,04,14,7.20
2013,09,30,04,15,4.70
2013,09,30,04,16,3.40
2013,09,30,04,17,1.60
2013,09,30,04,18,3.10
2013,09,30,04,19,2.90
2013,09,30,04,20,2.80
2013,09,30,04,21,3.30
2013,09,30,04,22,2.40
2013,09,30,04,23,1.20
2013,09,30,04,24,0.40
2013,09,30,04,25,0.00
2013,09,30,04,26,1.10
2013,09,30,04,27,2.20
2013,09,30,04,28,1.90
2013,09,30,04,29,3.70
2013,09,30,04,30,1.00
2013,09,30,04,31,0.40
2013,09,30,04,32,0.20
2013,09,30,04,33,1.20
2013,09,30,04,34,0.80
2013,09,30,04,35,1.20
2013,09,30,04,36,1.90
2013,09,30,04,37,1.00
2013,09,30,04,38,1.20
2013,09,30,04,39,0.60
2013,09,30,04,40,0.80
2013,09,30,04,41,2.10
2013,09,30,04,42,0.20
2013,09,30,04,43,1.50
2013,09,30,04,44,1.00
2013,09,30,04,45,3.00
2013,09,30,04,46,2.80
2013,09,30,04,47,5.80
2013,09,30,04,48,4.10
2013,09,30,04,49,1.50
2013,09,30,04,50,2.80
2013,09,30,04,51,3.90
2013,09,30,04,52,2.70
2013,09,30,04,53,6.10
2013,09,30,04,54,0.80
2013,09,30,04,55,1.40
2013,09,30,04,56,6.90
2013,09,30,04,57,1.50
2013,09,30,04,58,0.80
2013,09,30,04,59,2.50
2013,09,30,05,00,3.10
2013,09,30,05,01,2.70
2013,09,30,05,02,3.50
2013,09,30,05,03,0.60
2013,09,30,05,04,1.60
2013,09,30,05,05,0.60
2013,09,30,05,06,1.80
2013,09,30,05,07,0.20
2013,09,30,05,08,1.70
2013,09,30,05,09,4.20
2013,09,30,05,10,4.20
2013,09,30,05,11,0.30
2013,09,30,05,12,1.30
2013,09,30,05,13,2.50
2013,09,30,05,14,3.10
2013,09,30,05,15,3.90
2013,09,30,05,16,1.00
2013,09,30,05,17,3.80
2013,09,30,05,18,0.60
2013,09,30,05,19,0.30
2013,09,30,05,20,0.90
2013,09,30,05,21,3.40
2013,09,30,05,22,4.70
2013,09,30,05,23,9.50
2013,09,30,05,24,12.20
2013,09,30,05,25,11.50
2013,09,30,05,26,12.10
2013,09,30,05,27,6.70
2013,09,30,05,28,16.00
2013,09,30,05,29,21.40
2013,09,30,05,30,5.80
2013,09,30,05,31,6.50
2013,09,30,05,32,3.80
2013,09,30,05,33,5.90
2013,09,30,05,34,7.60
2013,09,30,05,35,6.70
2013,09,30,05,36,13.50
2013,09,30,05,37,11.10
2013,09,30,05,38,7.20
2013,09,30,05,39,3.30
2013,09,30,05,40,5.10
2013,09,30,05,41,4.30
2013,09,30,05,42,3.20
2013,09,30,05,43,8.00
2013,09,30,05,44,3.60
2013,09,30,05,45,5.00
2013,09,30,05,46,6.50
2013,09,30,05,47,5.30
2013,09,30,05,48,6.20
2013,09,30,05,49,4.90
2013,09,30,05,50,1.90
2013,09,30,05,51,3.70
2013,09,30,05,52,7.20
2013,09,30,05,53,4.60
2013,09,30,05,54,1.80
2013,09,30,05,55,0.30
2013,09,30,05,56,2.90
2013,09,30,05,57,6.40
2013,09,30,05,58,5.40
2013,09,30,05,59,2.50
2013,09,30,06,00,1.50
2013,09,30,06,01,0.60
2013,09,30,06,02,0.00
2013,09,30,06,03,0.20
2013,09,30,06,04,0.50
2013,09,30,06,05,0.40
2013,09,30,06,06,0.10
2013,09,30,06,07,1.70
2013,09,30,06,08,3.00
2013,09,30,06,09,2.50
2013,09,30,06,10,1.80
2013,09,30,06,11,2.30
2013,09,30,06,12,1.20
2013,09,30,06,13,2.50
2013,09,30,06,14,1.70
2013,09,30,06,15,2.30
2013,09,30,06,16,3.30
2013,09,30,06,17,3.80
2013,09,30,06,18,3.10
2013,09,30,06,19,2.20
2013,09,30,06,20,0.50
2013,09,30,06,21,0.00
2013,09,30,06,22,0.00
2013,09,30,06,23,0.50
2013,09,30,06,24,0.40
2013,09,30,06,25,0.10
2013,09,30,06,26,0.90
2013,09,30,06,27,0.60
2013,09,30,06,28,2.50
2013,09,30,06,29,1.80
2013,09,30,06,30,0.00
2013,09,30,06,31,0.00
2013,09,30,06,32,0.00
2013,09,30,06,33,0.00
2013,09,30,06,34,0.00
2013,09,30,06,35,0.00
2013,09,30,06,36,0.00
2013,09,30,06,37,0.00
2013,09,30,06,38,0.00
2013,09,30,06,39,0.00
2013,09,30,06,40,0.00
2013,09,30,06,41,0.10
2013,09,30,06,42,0.00
2013,09,30,06,43,0.10
2013,09,30,06,44,0.00
2013,09,30,06,45,0.00
2013,09,30,06,46,0.00
2013,09,30,06,47,0.20
2013,09,30,06,48,0.00
2013,09,30,06,49,0.00
2013,09,30,06,50,0.00
2013,09,30,06,51,0.00
2013,09,30,06,52,0.00
2013,09,30,06,53,0.10
2013,09,30,06,54,0.20
2013,09,30,06,55,1.90
2013,09,30,06,56,3.00
2013,09,30,06,57,3.40
2013,09,30,06,58,3.00
2013,09,30,06,59,1.90
2013,09,30,07,00,1.40
2013,09,30,07,01,2.00
2013,09,30,07,02,2.80
2013,09,30,07,03,2.80
2013,09,30,07,04,2.30
2013,09,30,07,05,0.50
2013,09,30,07,06,0.20
2013,09,30,07,07,0.00
2013,09,30,07,08,0.10
2013,09,30,07,09,0.40
2013,09,30,07,10,0.30
2013,09,30,07,11,0.00
2013,09,30,07,12,0.10
2013,09,30,07,13,0.10
2013,09,30,07,14,0.20
2013,09,30,07,15,2.40
2013,09,30,07,16,4.80
2013,09,30,07,17,2.20
2013,09,30,07,18,1.80
2013,09,30,07,19,0.40
2013,09,30,07,20,0.00
2013,09,30,07,21,1.60
2013,09,30,07,22,0.80
2013,09,30,07,23,0.40
2013,09,30,07,24,1.50
2013,09,30,07,25,1.30
2013,09,30,07,26,0.00
2013,09,30,07,27,0.00
2013,09,30,07,28,0.10
2013,09,30,07,29,0.00
2013,09,30,07,30,0.00
2013,09,30,07,31,0.00
2013,09,30,07,32,0.10
2013,09,30,07,33,0.20
2013,09,30,07,34,0.00
2013,09,30,07,35,0.00
2013,09,30,07,36,0.00
2013,09,30,07,37,0.00
2013,09,30,07,38,0.00
2013,09,30,07,39,0.00
2013,09,30,07,40,0.00
2013,09,30,07,41,0.10
2013,09,30,07,42,0.30
2013,09,30,07,43,0.00
2013,09,30,07,44,0.00
2013,09,30,07,45,6.00
2013,09,30,07,46,5.80
2013,09,30,07,47,5.80
2013,09,30,07,48,5.70
2013,09,30,07,49,5.70
2013,09,30,07,50,7.70
2013,09,30,07,51,5.00
2013,09,30,07,52,8.40
2013,09,30,07,53,9.50
2013,09,30,07,54,3.80
2013,09,30,07,55,5.10
2013,09,30,07,56,3.60
2013,09,30,07,57,1.70
2013,09,30,07,58,1.90
2013,09,30,07,59,0.90
2013,09,30,08,00,4.20
2013,09,30,08,01,8.00
2013,09,30,08,02,3.20
2013,09,30,08,03,2.10
2013,09,30,08,04,3.00
2013,09,30,08,05,2.70
2013,09,30,08,06,0.10
2013,09,30,08,07,1.40
2013,09,30,08,08,1.60
2013,09,30,08,09,0.60
2013,09,30,08,10,0.20
2013,09,30,08,11,0.60
2013,09,30,08,12,0.30
2013,09,30,08,13,0.60
2013,09,30,08,14,2.50
2013,09,30,08,15,2.30
2013,09,30,08,16,0.70
2013,09,30,08,17,0.00
2013,09,30,08,18,0.00
2013,09,30,08,19,1.40
2013,09,30,08,20,5.50
2013,09,30,08,21,3.90
2013,09,30,08,22,0.30
2013,09,30,08,23,0.00
2013,09,30,08,24,0.10
2013,09,30,08,25,0.20
2013,09,30,08,26,0.00
2013,09,30,08,27,0.00
2013,09,30,08,28,0.00
2013,09,30,08,29,2.30
2013,09,30,08,30,1.00
2013,09,30,08,31,0.00
2013,09,30,08,32,0.00
2013,09,30,08,33,0.00
2013,09,30,08,34,0.00
2013,09,30,08,35,0.00
2013,09,30,08,36,0.00
2013,09,30,08,37,0.10
2013,09,30,08,38,1.60
2013,09,30,08,39,3.50
2013,09,30,08,40,2.90
2013,09,30,08,41,0.80
2013,09,30,08,42,0.00
2013,09,30,08,43,0.00
2013,09,30,08,44,0.00
2013,09,30,08,45,0.00
2013,09,30,08,46,0.00
2013,09,30,08,47,0.00
2013,09,30,08,48,0.00
2013,09,30,08,49,0.00
2013,09,30,08,50,0.00
2013,09,30,08,51,0.00
2013,09,30,08,52,0.00
2013,09,30,08,53,0.00
2013,09,30,08,54,0.00
2013,09,30,08,55,0.00
2013,09,30,08,56,0.40
2013,09,30,08,57,0.30
2013,09,30,08,58,0.60
2013,09,30,08,59,1.80
2013,09,30,09,00,1.40
2013,09,30,09,01,0.60
2013,09,30,09,02,0.00
2013,09,30,09,03,1.50
2013,09,30,09,04,1.10
2013,09,30,09,05,0.00
2013,09,30,09,06,0.00
2013,09,30,09,07,0.00
2013,09,30,09,08,0.00
2013,09,30,09,09,0.40
2013,09,30,09,10,3.20
2013,09,30,09,11,2.60
2013,09,30,09,12,1.00
2013,09,30,09,13,0.90
2013,09,30,09,14,0.20
2013,09,30,09,15,0.10
2013,09,30,09,16,0.30
2013,09,30,09,17,1.20
2013,09,30,09,18,1.00
2013,09,30,09,19,2.60
2013,09,30,09,20,2.70
2013,09,30,09,21,2.60
2013,09,30,09,22,2.70
2013,09,30,09,23,1.90
2013,09,30,09,24,5.70
2013,09,30,09,25,5.20
2013,09,30,09,26,1.50
2013,09,30,09,27,1.50
2013,09,30,09,28,1.90
2013,09,30,09,29,3.00
2013,09,30,09,30,1.10
2013,09,30,09,31,1.50
2013,09,30,09,32,3.80
2013,09,30,09,33,6.80
2013,09,30,09,34,3.90
2013,09,30,09,35,3.90
2013,09,30,09,36,5.90
2013,09,30,09,37,3.10
2013,09,30,09,38,4.60
2013,09,30,09,39,4.40
2013,09,30,09,40,2.90
2013,09,30,09,41,1.40
2013,09,30,09,42,2.70
2013,09,30,09,43,2.00
2013,09,30,09,44,3.00
2013,09,30,09,45,1.20
2013,09,30,09,46,2.50
2013,09,30,09,47,2.10
2013,09,30,09,48,2.10
2013,09,30,09,49,2.80
2013,09,30,09,50,3.70
2013,09,30,09,51,2.40
2013,09,30,09,52,0.50
2013,09,30,09,53,0.80
2013,09,30,09,54,2.60
2013,09,30,09,55,3.80
2013,09,30,09,56,4.00
2013,09,30,09,57,6.50
2013,09,30,09,58,4.60
2013,09,30,09,59,4.00
2013,09,30,10,00,4.10
2013,09,30,10,01,1.00
2013,09,30,10,02,1.10
2013,09,30,10,03,0.60
2013,09,30,10,04,0.00
2013,09,30,10,05,1.50
2013,09,30,10,06,0.90
2013,09,30,10,07,0.00
2013,09,30,10,08,1.40
2013,09,30,10,09,1.40
2013,09,30,10,10,2.10
2013,09,30,10,11,2.90
2013,09,30,10,12,4.10
2013,09,30,10,13,1.80
2013,09,30,10,14,0.80
2013,09,30,10,15,1.80
2013,09,30,10,16,2.60
2013,09,30,10,17,0.70
2013,09,30,10,18,1.50
2013,09,30,10,19,2.70
2013,09,30,10,20,0.20
2013,09,30,10,21,2.90
2013,09,30,10,22,0.40
2013,09,30,10,23,0.60
2013,09,30,10,24,3.30
2013,09,30,10,25,5.70
2013,09,30,10,26,6.20
2013,09,30,10,27,4.10
2013,09,30,10,28,3.80
2013,09,30,10,29,1.10
2013,09,30,10,30,1.80
2013,09,30,10,31,3.10
2013,09,30,10,32,6.40
2013,09,30,10,33,3.50
2013,09,30,10,34,4.70
2013,09,30,10,35,5.40
2013,09,30,10,36,4.30
2013,09,30,10,37,2.20
2013,09,30,10,38,3.50
2013,09,30,10,39,6.40
2013,09,30,10,40,3.30
2013,09,30,10,41,1.10
2013,09,30,10,42,0.20
2013,09,30,10,43,2.00
2013,09,30,10,44,5.50
2013,09,30,10,45,5.90
2013,09,30,10,46,4.30
2013,09,30,10,47,5.70
2013,09,30,10,48,3.10
2013,09,30,10,49,5.60
2013,09,30,10,50,7.90
2013,09,30,10,51,8.90
2013,09,30,10,52,6.50
2013,09,30,10,53,3.20
2013,09,30,10,54,2.40
2013,09,30,10,55,0.20
2013,09,30,10,56,0.00
2013,09,30,10,57,0.00
2013,09,30,10,58,1.10
2013,09,30,10,59,2.10
2013,09,30,11,00,2.60
2013,09,30,11,01,3.90
2013,09,30,11,02,0.30
2013,09,30,11,03,0.10
2013,09,30,11,04,0.20
2013,09,30,11,05,2.80
2013,09,30,11,06,2.40
2013,09,30,11,07,0.40
2013,09,30,11,08,0.10
2013,09,30,11,09,0.00
2013,09,30,11,10,0.10
2013,09,30,11,11,0.00
2013,09,30,11,12,0.50
2013,09,30,11,13,0.20
2013,09,30,11,14,1.40
2013,09,30,11,15,0.10
2013,09,30,11,16,0.00
2013,09,30,11,17,0.00
2013,09,30,11,18,0.20
2013,09,30,11,19,2.10
2013,09,30,11,20,9.70
2013,09,30,11,21,11.40
2013,09,30,11,22,9.00
2013,09,30,11,23,8.60
2013,09,30,11,24,5.50
2013,09,30,11,25,5.10
2013,09,30,11,26,5.50
2013,09,30,11,27,4.00
2013,09,30,11,28,3.60
2013,09,30,11,29,1.40
2013,09,30,11,30,0.00
2013,09,30,11,31,1.50
2013,09,30,11,32,2.40
2013,09,30,11,33,2.60
2013,09,30,11,34,1.80
2013,09,30,11,35,1.70
2013,09,30,11,36,1.80
2013,09,30,11,37,0.00
2013,09,30,11,38,0.10
2013,09,30,11,39,0.20
2013,09,30,11,40,0.00
2013,09,30,11,41,0.10
2013,09,30,11,42,0.00
2013,09,30,11,43,0.40
2013,09,30,11,44,0.90
2013,09,30,11,45,0.90
2013,09,30,11,46,1.30
2013,09,30,11,47,3.30
2013,09,30,11,48,1.50
2013,09,30,11,49,2.50
2013,09,30,11,50,0.50
2013,09,30,11,51,0.10
2013,09,30,11,52,0.50
2013,09,30,11,53,0.10
2013,09,30,11,54,0.00
2013,09,30,11,55,0.90
2013,09,30,11,56,1.80
2013,09,30,11,57,0.10
2013,09,30,11,58,0.40
2013,09,30,11,59,0.10
2013,09,30,12,00,1.30
2013,09,30,12,01,5.90
2013,09,30,12,02,9.70
2013,09,30,12,03,11.40
2013,09,30,12,04,9.70
2013,09,30,12,05,5.00
2013,09,30,12,06,6.40
2013,09,30,12,07,2.60
2013,09,30,12,08,2.40
2013,09,30,12,09,10.80
2013,09,30,12,10,6.60
2013,09,30,12,11,4.70
2013,09,30,12,12,6.10
2013,09,30,12,13,3.20
2013,09,30,12,14,3.70
2013,09,30,12,15,4.30
2013,09,30,12,16,1.60
2013,09,30,12,17,3.00
2013,09,30,12,18,0.30
2013,09,30,12,19,2.10
2013,09,30,12,20,2.90
2013,09,30,12,21,4.80
2013,09,30,12,22,1.20
2013,09,30,12,23,1.10
2013,09,30,12,24,1.40
2013,09,30,12,25,4.40
2013,09,30,12,26,2.60
2013,09,30,12,27,5.20
2013,09,30,12,28,2.60
2013,09,30,12,29,4.90
2013,09,30,12,30,3.70
2013,09,30,12,31,0.80
2013,09,30,12,32,0.20
2013,09,30,12,33,0.60
2013,09,30,12,34,1.90
2013,09,30,12,35,5.00
2013,09,30,12,36,4.00
2013,09,30,12,37,1.40
2013,09,30,12,38,0.70
2013,09,30,12,39,2.00
2013,09,30,12,40,0.30
2013,09,30,12,41,0.00
2013,09,30,12,42,0.10
2013,09,30,12,43,0.00
2013,09,30,12,44,0.80
2013,09,30,12,45,1.40
2013,09,30,12,46,2.80
2013,09,30,12,47,1.20
2013,09,30,12,48,3.20
2013,09,30,12,49,0.70
2013,09,30,12,50,0.80
2013,09,30,12,51,0.10
2013,09,30,12,52,0.30
2013,09,30,12,53,0.60
2013,09,30,12,54,0.50
2013,09,30,12,55,1.00
2013,09,30,12,56,1.00
2013,09,30,12,57,0.20
2013,09,30,12,58,1.60
2013,09,30,12,59,2.80
2013,09,30,13,00,4.30
2013,09,30,13,01,1.40
2013,09,30,13,02,1.40
2013,09,30,13,03,2.20
2013,09,30,13,04,2.50
2013,09,30,13,05,4.10
2013,09,30,13,06,1.80
2013,09,30,13,07,2.30
2013,09,30,13,08,5.00
2013,09,30,13,09,4.70
2013,09,30,13,10,0.20
2013,09,30,13,11,0.80
2013,09,30,13,12,2.00
2013,09,30,13,13,1.90
2013,09,30,13,14,1.50
2013,09,30,13,15,3.10
2013,09,30,13,16,0.10
2013,09,30,13,17,0.40
2013,09,30,13,18,3.80
2013,09,30,13,19,0.80
2013,09,30,13,20,3.50
2013,09,30,13,21,2.30
2013,09,30,13,22,5.30
2013,09,30,13,23,6.00
2013,09,30,13,24,4.30
2013,09,30,13,25,3.00
2013,09,30,13,26,0.10
2013,09,30,13,27,0.00
2013,09,30,13,28,0.20
2013,09,30,13,29,1.60
2013,09,30,13,30,2.50
2013,09,30,13,31,1.50
2013,09,30,13,32,4.30
2013,09,30,13,33,4.70
2013,09,30,13,34,4.30
2013,09,30,13,35,5.00
2013,09,30,13,36,3.40
2013,09,30,13,37,0.00
2013,09,30,13,38,0.00
2013,09,30,13,39,0.00
2013,09,30,13,40,0.00
2013,09,30,13,41,1.30
2013,09,30,13,42,1.00
2013,09,30,13,43,1.70
2013,09,30,13,44,0.60
2013,09,30,13,45,1.40
2013,09,30,13,46,3.40
2013,09,30,13,47,2.70
2013,09,30,13,48,5.60
2013,09,30,13,49,6.60
2013,09,30,13,50,2.70
2013,09,30,13,51,2.10
2013,09,30,13,52,1.60
2013,09,30,13,53,1.90
2013,09,30,13,54,1.70
2013,09,30,13,55,1.90
2013,09,30,13,56,2.90
2013,09,30,13,57,3.70
2013,09,30,13,58,0.90
2013,09,30,13,59,2.40
2013,09,30,14,00,5.30
2013,09,30,14,01,6.90
2013,09,30,14,02,6.00
2013,09,30,14,03,2.40
2013,09,30,14,04,2.60
2013,09,30,14,05,6.10
2013,09,30,14,06,1.40
2013,09,30,14,07,4.00
2013,09,30,14,08,1.90
2013,09,30,14,09,1.40
2013,09,30,14,10,1.80
2013,09,30,14,11,1.50
2013,09,30,14,12,1.40
2013,09,30,14,13,4.20
2013,09,30,14,14,4.60
2013,09,30,14,15,4.80
2013,09,30,14,16,0.80
2013,09,30,14,17,1.50
2013,09,30,14,18,0.30
2013,09,30,14,19,0.40
2013,09,30,14,20,3.90
2013,09,30,14,21,0.10
2013,09,30,14,22,1.40
2013,09,30,14,23,0.90
2013,09,30,14,24,3.00
2013,09,30,14,25,2.50
2013,09,30,14,26,0.60
2013,09,30,14,27,0.30
2013,09,30,14,28,0.90
2013,09,30,14,29,1.50
2013,09,30,14,30,4.30
2013,09,30,14,31,4.90
2013,09,30,14,32,0.00
2013,09,30,14,33,1.90
2013,09,30,14,34,0.20
2013,09,30,14,35,3.90
2013,09,30,14,36,4.10
2013,09,30,14,37,0.70
2013,09,30,14,38,3.60
2013,09,30,14,39,2.70
2013,09,30,14,40,2.30
2013,09,30,14,41,2.40
2013,09,30,14,42,4.10
2013,09,30,14,43,2.20
2013,09,30,14,44,3.00
2013,09,30,14,45,1.70
2013,09,30,14,46,1.40
2013,09,30,14,47,0.90
2013,09,30,14,48,0.00
2013,09,30,14,49,1.20
2013,09,30,14,50,1.30
2013,09,30,14,51,0.00
2013,09,30,14,52,0.00
2013,09,30,14,53,0.00
2013,09,30,14,54,0.00
2013,09,30,14,55,0.10
2013,09,30,14,56,1.00
2013,09,30,14,57,3.20
2013,09,30,14,58,1.10
2013,09,30,14,59,2.10
2013,09,30,15,00,3.20
2013,09,30,15,01,13.80
2013,09,30,15,02,7.70
2013,09,30,15,03,5.10
2013,09,30,15,04,4.00
2013,09,30,15,05,7.60
2013,09,30,15,06,7.20
2013,09,30,15,07,5.90
2013,09,30,15,08,1.00
2013,09,30,15,09,5.20
2013,09,30,15,10,1.10
2013,09,30,15,11,0.20
2013,09,30,15,12,1.00
2013,09,30,15,13,0.90
2013,09,30,15,14,0.80
2013,09,30,15,15,1.00
2013,09,30,15,16,0.90
2013,09,30,15,17,2.40
2013,09,30,15,18,0.50
2013,09,30,15,19,2.80
2013,09,30,15,20,0.60
2013,09,30,15,21,1.60
2013,09,30,15,22,3.10
2013,09,30,15,23,1.50
2013,09,30,15,24,1.70
2013,09,30,15,25,2.70
2013,09,30,15,26,1.40
2013,09,30,15,27,3.10
2013,09,30,15,28,2.20
2013,09,30,15,29,1.30
2013,09,30,15,30,1.40
2013,09,30,15,31,0.50
2013,09,30,15,32,0.20
2013,09,30,15,33,0.40
2013,09,30,15,34,0.50
2013,09,30,15,35,2.90
2013,09,30,15,36,1.20
2013,09,30,15,37,2.90
2013,09,30,15,38,1.10
2013,09,30,15,39,1.50
2013,09,30,15,40,1.90
2013,09,30,15,41,1.00
2013,09,30,15,42,0.00
2013,09,30,15,43,0.00
2013,09,30,15,44,0.30
2013,09,30,15,45,1.90
2013,09,30,15,46,1.90
2013,09,30,15,47,2.70
2013,09,30,15,48,0.10
2013,09,30,15,49,1.80
2013,09,30,15,50,0.90
2013,09,30,15,51,0.70
2013,09,30,15,52,1.50
2013,09,30,15,53,1.50
2013,09,30,15,54,0.00
2013,09,30,15,55,1.40
2013,09,30,15,56,2.60
2013,09,30,15,57,2.80
2013,09,30,15,58,0.40
2013,09,30,15,59,1.80
2013,09,30,16,00,1.40
2013,09,30,16,01,2.40
2013,09,30,16,02,1.60
2013,09,30,16,03,0.60
2013,09,30,16,04,3.50
2013,09,30,16,05,2.00
2013,09,30,16,06,4.70
2013,09,30,16,07,0.40
2013,09,30,16,08,0.70
2013,09,30,16,09,0.50
2013,09,30,16,10,3.50
2013,09,30,16,11,1.80
2013,09,30,16,12,0.90
2013,09,30,16,13,1.80
2013,09,30,16,14,1.90
2013,09,30,16,15,3.20
2013,09,30,16,16,0.80
2013,09,30,16,17,2.20
2013,09,30,16,18,2.10
2013,09,30,16,19,1.30
2013,09,30,16,20,1.90
2013,09,30,16,21,0.70
2013,09,30,16,22,5.80
2013,09,30,16,23,4.00
2013,09,30,16,24,1.50
2013,09,30,16,25,0.20
2013,09,30,16,26,3.70
2013,09,30,16,27,1.70
2013,09,30,16,28,0.40
2013,09,30,16,29,0.60
2013,09,30,16,30,0.00
2013,09,30,16,31,1.90
2013,09,30,16,32,3.00
2013,09,30,16,33,4.20
2013,09,30,16,34,1.80
2013,09,30,16,35,2.10
2013,09,30,16,36,3.40
2013,09,30,16,37,3.00
2013,09,30,16,38,4.40
2013,09,30,16,39,5.40
2013,09,30,16,40,2.30
2013,09,30,16,41,0.00
2013,09,30,16,42,0.10
2013,09,30,16,43,0.60
2013,09,30,16,44,0.20
2013,09,30,16,45,0.00
2013,09,30,16,46,0.00
2013,09,30,16,47,0.00
2013,09,30,16,48,0.00
2013,09,30,16,49,0.40
2013,09,30,16,50,3.30
2013,09,30,16,51,6.50
2013,09,30,16,52,5.60
2013,09,30,16,53,10.50
2013,09,30,16,54,11.40
2013,09,30,16,55,8.30
2013,09,30,16,56,1.80
2013,09,30,16,57,4.40
2013,09,30,16,58,2.50
2013,09,30,16,59,6.00
2013,09,30,17,00,6.60
2013,09,30,17,01,7.00
2013,09,30,17,02,7.00
2013,09,30,17,03,2.70
2013,09,30,17,04,3.90
2013,09,30,17,05,1.50
2013,09,30,17,06,4.10
2013,09,30,17,07,2.40
2013,09,30,17,08,12.40
2013,09,30,17,09,12.50
2013,09,30,17,10,6.80
2013,09,30,17,11,7.60
2013,09,30,17,12,9.40
2013,09,30,17,13,9.60
2013,09,30,17,14,6.90
2013,09,30,17,15,6.50
2013,09,30,17,16,8.20
2013,09,30,17,17,11.30
2013,09,30,17,18,7.20
2013,09,30,17,19,5.20
2013,09,30,17,20,13.80
2013,09,30,17,21,17.90
2013,09,30,17,22,13.40
2013,09,30,17,23,7.00
2013,09,30,17,24,6.90
2013,09,30,17,25,6.00
2013,09,30,17,26,12.30
2013,09,30,17,27,6.80
2013,09,30,17,28,1.30
2013,09,30,17,29,5.20
2013,09,30,17,30,6.80
2013,09,30,17,31,5.80
2013,09,30,17,32,3.30
2013,09,30,17,33,6.80
2013,09,30,17,34,1.60
2013,09,30,17,35,3.10
2013,09,30,17,36,0.80
2013,09,30,17,37,1.80
2013,09,30,17,38,0.00
2013,09,30,17,39,2.60
2013,09,30,17,40,3.60
2013,09,30,17,41,4.70
2013,09,30,17,42,0.10
2013,09,30,17,43,0.10
2013,09,30,17,44,0.70
2013,09,30,17,45,3.00
2013,09,30,17,46,2.00
2013,09,30,17,47,3.30
2013,09,30,17,48,1.10
2013,09,30,17,49,3.30
2013,09,30,17,50,0.60
2013,09,30,17,51,1.00
2013,09,30,17,52,1.10
2013,09,30,17,53,0.00
2013,09,30,17,54,0.00
2013,09,30,17,55,2.60
2013,09,30,17,56,3.00
2013,09,30,17,57,0.00
2013,09,30,17,58,0.10
2013,09,30,17,59,0.20
2013,09,30,18,00,0.10
2013,09,30,18,01,1.10
2013,09,30,18,02,0.60
2013,09,30,18,03,2.60
2013,09,30,18,04,2.40
2013,09,30,18,05,2.50
2013,09,30,18,06,0.90
2013,09,30,18,07,0.00
2013,09,30,18,08,0.00